sat.trackr.live / text

‹ back to catalog

STARLINK-5529

NORAD 56495 · 2023-064AZ

PAYLOAD ACTIVE UNKNOWN

§ Identity

Operator
Country
US
Launch date
2023-05-10
Launch site
AFWTR
Launch vehicle
Mass (kg)
RCS (m²)

Purposes: comms

External: N2YO · Heavens-Above · Gunter

§ Orbital elements

Epoch: 2026-05-25T01:23:34.108224Z

Period
96.11 min
Inclination
69.9991°
Eccentricity
0.0003076
Mean motion
14.98331676 rev/d
Perigee alt
569.9 km
Apogee alt
574.2 km
Semi-major
6,950.2 km
B*
3.0536e-7
RAAN
271.8231°
Arg perigee
270.7297°
Mean anomaly
89.3510°
Rev number
16,767

§ Raw data

STARLINK-55291 56495U 23064AZ  26145.05803366 -.00000089  00000+0  30536-6 0  99932 56495  69.9991 271.8231 0003076 270.7297  89.3510 14.98331676167679

JSON: /api/v1/satellites/56495 · /tle

For live sub-satellite position, see the globe view (requires WebGL).

§ Visibility from observer

Set your observer location to see the next 7 days of passes ≥ 10°. The values pass through the URL so the page stays shareable.

No JS? Fill the form by hand. The geolocation button needs JavaScript.